Погода в Скукузе

ЮАР     24°59′59″S   31°35′34″E
темп.,
°C
ветер,
м/с
пор.,
м/с
влажн.,
%
обл.,
%
осадки,
мм/ч
давл.,
гПа
погр.,
м
16 июня, ср
ср1623:00+15зсз224795 0.0 102114
02:00+13зсз224954 0.0 102122
05:00+12зсз23514 0.0 102047
08:00+15зсз23410 0.0 1021149
11:00+25ссз45290 0.0 10201286
14:00+27с44220 0.0 10171586
17:00+22ссв37290 0.0 1016128
20:00+17ссз234134 0.0 101849
17 июня, чт
чт1723:00+15з224621 0.0 101927
02:00+14з22465 0.0 101824
05:00+14з22435 0.0 101812
08:00+17зсз12332 0.0 102095
11:00+26ссз11190 0.0 1019655
14:00+30св11150 0.0 10161305
17:00+24всв22220 0.0 101720
20:00+19з11360 0.0 102011
18 июня, пт
пт1823:00+17ююв310550 0.0 1022301
02:00+15ююз25760 0.0 1023134
05:00+14ююз22770 0.0 102538
08:00+16ю310680 0.0 1028459
11:00+22ююв565046 0.0 10281492
14:00+22юв6752100 0.0 10271463
17:00+20вюв365499 0.0 1028544
20:00+17вюв310778 0.1 1032547
19 июня, сб
сб1923:00+14ю28900 0.1 1033275
02:00+14ю310890 0.1 1032455
05:00+14ю3118852 0.0 1033452
08:00+17ю486999 0.0 1034788
11:00+18ююв4664100 0.0 10341070
14:00+21юв455188 0.1 10301586
17:00+18юв245810 0.0 1031111
20:00+15юв22710 0.0 103223
20 июня, вс
вс2023:00+13ююз11870 0.0 103210
02:00+12юз22910 0.0 103115
05:00+11юз22920 0.0 103114
08:00+14юз23720 0.0 1032143
11:00+22вюв11420 0.0 10301013
14:00+24в22380 0.0 10271715
17:00+20в24490 0.0 102766
20:00+15в12790 0.0 102947